Preview of NWS' New Version of Forecast
This preview is not operational and should not be used for support decisions.

Regional Weather Roundup (RWR)

Issued by National Weather Service (NWS)

                            
000
ASUS45 KABQ 180601
RWRNM 
NEW MEXICO REGIONAL WEATHER ROUNDUP
NATIONAL WEATHER SERVICE ALBUQUERQUE NM
1200 AM MDT THU APR 18 2019

NOTE: "FAIR" MEANS FEW OR NO CLOUDS BELOW 12,000 FEET AGL WITH NO
       SIGNIFICANT WEATHER OR OBSTRUCTIONS TO VISION.

      THIS PRODUCT IS RELEASED AS TWO VERSIONS.  ONE VERSION NEAR
      THE TOP OF THE HOUR CONTAINING PRELIMINARY DATA FROM ALBUQUERQUE
      AND OTHER STATIONS.  A FINAL VERSION WITH ADDITIONAL DATA IS 
      ISSUED ABOUT 10 MINUTES AFTER THE HOUR.
 
NMZ501-503-504-510>518-180700-
NORTHWEST PLATEAU/NORTHCENTRAL MOUNTAINS
  
CITY           SKY/WX    TMP DP  RH WIND       PRES   REMARKS
FARMINGTON     FAIR      56  21  25 NW25G37   30.01F                  
6HR MIN TEMP:  55; 6HR MAX TEMP:  68;                                

LOS ALAMOS       N/A     43  38  84 SE5       30.07R                  
SANTA FE       FOG       41  40  96 CALM      30.05R VSB 1/4          
6HR MIN TEMP:  41; 6HR MAX TEMP:  51; 6HR PCP:  0.04;                

TAOS           FAIR      34  32  92 E6        30.10R WCI  29          

$$
NMZ402-403-502-505>509-180700-
WESTCENTRAL MOUNTAINS/SOUTHWEST MOUNTAINS
  
CITY           SKY/WX    TMP DP  RH WIND       PRES   REMARKS
GALLUP         FAIR      40  28  62 W8        30.15R WCI  34          
6HR MIN TEMP:  40; 6HR MAX TEMP:  58;                                

GRANTS         FAIR      43  32  66 NW12      30.12R                  
SILVER CITY    FAIR      47  40  75 NW10      30.08S                  

$$
NMZ407-409-411-412-180700-
SOUTHERN DESERTS
  
CITY           SKY/WX    TMP DP  RH WIND       PRES   REMARKS
DEMING         FAIR      53  41  63 W10       30.06R                  
6HR MIN TEMP:  53; 6HR MAX TEMP:  63;                                

ALAMOGORDO     FAIR      50  45  81 N8        30.02R                  
T OR C         FAIR      47  43  86 SW5       30.03R                  
6HR MIN TEMP:  47; 6HR MAX TEMP:  63; 6HR PCP: TRACE;                


$$
NMZ519>523-180700-
CENTRAL VALLEYS/CENTRAL HIGHLANDS
  
CITY           SKY/WX    TMP DP  RH WIND       PRES   REMARKS
ALBUQUERQUE    FAIR      46  44  93 SE8       30.05R                  
6HR MIN TEMP:  45; 6HR MAX TEMP:  49; 6HR PCP:  0.08;                

DOUBLE EAGLE   FAIR      42  41  96 W6        30.06R                  
CLINES CORNERS FAIR      41  38  89 NW10      30.06S                  
6HR MIN TEMP:  40; 6HR MAX TEMP:  45; 6HR PCP: TRACE;                

BELEN          FAIR      45  43  93 SW5       30.05S                  
6HR MIN TEMP:  45; 6HR MAX TEMP:  48; 6HR PCP:  0.03;                

SOCORRO        NOT AVBL                                               

$$
NMZ524>526-539-540-180700-
SOUTHCENTRAL MOUNTAINS
  
CITY           SKY/WX    TMP DP  RH WIND       PRES   REMARKS
RUIDOSO        MOCLDY    41  36  81 NW14      30.07R                  

$$
NMZ527>531-180700-
NORTHEAST HIGHLANDS/NORTHEAST PLAINS
  
CITY           SKY/WX    TMP DP  RH WIND       PRES   REMARKS
LAS VEGAS      FAIR      40  36  86 N7        30.03S                  
6HR MIN TEMP:  40; 6HR MAX TEMP:  46;                                

RATON          FAIR      42  35  76 NW13      30.00R                  
6HR MIN TEMP:  42; 6HR MAX TEMP:  46; 6HR PCP:  0.05;                

CLAYTON        FAIR      44  34  67 N10       29.94R                  
6HR MIN TEMP:  44; 6HR MAX TEMP:  52;                                


$$
NMZ532>537-180700-
EASTCENTRAL PLAINS
  
CITY           SKY/WX    TMP DP  RH WIND       PRES   REMARKS
SANTA ROSA     FAIR      50  40  69 W5        29.95S                  
TUCUMCARI      FAIR      50  44  80 NW14      29.89R                  
6HR MIN TEMP:  49; 6HR MAX TEMP:  51; 6HR PCP: TRACE;                

CANNON AFB     NOT AVBL                                               
CLOVIS AIRPORT FAIR      48  44  86 NW13      29.89R                  

$$
NMZ028-029-538-180700-
SOUTHEAST PLAINS
  
CITY           SKY/WX    TMP DP  RH WIND       PRES   REMARKS
ROSWELL        FAIR      55  41  59 NW8       29.90F                  
6HR MIN TEMP:  55; 6HR MAX TEMP:  62; 6HR PCP: TRACE;                

ARTESIA        FAIR      54  39  58 W13       29.91F                  
CARLSBAD       FAIR      58  39  49 W14       29.89S                  
6HR MIN TEMP:  57; 6HR MAX TEMP:  71;                                

HOBBS          FAIR      55  43  62 NW26G36   29.84S                  


$$